Zurück zum Katalog

LUCY

AktivWissenschaftVLEO
NORAD 49328·PAYLOAD·🇺🇸 United States

Gestartet Oct 16, 2021 von Cape Canaveral Space Force Station

Loading…

Nächste Überflüge (nächste 24 Stunden)

TLE

VeraltetSource: Space-Track

Epoche: Oct 16, 2021, 09:47 UTC

1 49328U 21093A   21289.40775685  .00002371 -74891-5  00000-0 0  9993
2 49328  28.4700 357.4008 0105000 216.7000 268.5023 16.15960640    02

Verfolge LUCY in Echtzeit mit AllMySat

Download on the App Store